Flag for Germany

Past Weather in Demmin, Mecklenburg-Western Pomerania, Germany — Yesterday and Last 2 Weeks

Now
82 °F

Scattered clouds.


Feels Like: 81 °F
Forecast: 81 / 60 °F
Wind: 13 mph from East

Location: Laage
Current Time: Aug 12, 2020 at 2:59:14 pm
Latest Report: Aug 12, 2020 at 2:20 pm
Visibility: N/A
Pressure30.12 "Hg
Humidity: 37%
Dew Point: 54 °F
Location of DemminLocation

Past Weather in Demmin — Graph

°F

Demmin Temperature Yesterday

Maximum temperature yesterday: 84 °F (at 2:20 pm)
Minimum temperature yesterday: 64 °F (at 3:20 am)
Average temperature yesterday: 72 °F

High & Low Weather Summary for the Past Weeks

 TemperatureHumidityPressure
High90 °F (Aug 10, 2:20 pm)100% (Aug 1, 5:20 am)30.21 "Hg (Aug 1, 5:20 am)
Low50 °F (Aug 4, 5:20 am)27% (Aug 6, 5:20 pm)29.74 "Hg (Jul 28, 1:20 pm)
Average68 °F67%30.04 "Hg
* Reported Jul 28 1:20 pm — Aug 12 1:20 pm, Demmin. Weather by CustomWeather, © 2020

Note: Actual official high and low records may vary slightly from our data, if they occured in-between our weather recording intervals... More about our weather records

Demmin Weather History for the Previous 24 Hours

Scroll right to see more
 ConditionsComfort  
Time TempWeatherWind HumidityBarometerVisibility
1:20 pm
Wed, Aug 12
81 °FScattered clouds.10 mph39%30.12 "HgN/A
12:20 pm81 °FPartly sunny.12 mph39%30.12 "HgN/A
11:20 am77 °FScattered clouds.14 mph51%30.12 "HgN/A
10:49 am73 °FScattered clouds.12 mph57%30.12 "HgN/A
10:20 am72 °FScattered clouds.10 mph61%30.15 "HgN/A
9:20 am68 °FScattered clouds.10 mph64%30.15 "HgN/A
8:20 am64 °FPassing clouds.13 mph78%30.15 "HgN/A
7:20 am61 °FPassing clouds.10 mph88%30.15 "HgN/A
6:20 am59 °FPassing clouds.7 mph94%30.15 "HgN/A
5:20 am59 °FPassing clouds.7 mph94%30.15 "HgN/A
4:20 am61 °FCool.7 mph88%30.15 "HgN/A
3:20 am61 °FCool.9 mph88%30.15 "HgN/A
2:20 am63 °FMild.12 mph88%30.15 "HgN/A
1:20 am63 °FMild.12 mph88%30.15 "HgN/A
12:20 am63 °FMild.13 mph88%30.15 "HgN/A
11:20 pm
Tue, Aug 11
64 °FMild.12 mph83%30.15 "HgN/A
10:20 pm64 °FMild.13 mph83%30.15 "HgN/A
9:20 pm66 °FMild.12 mph73%30.15 "HgN/A
8:20 pm70 °FPassing clouds.13 mph60%30.12 "HgN/A
7:20 pm75 °FPassing clouds.16 mph50%30.12 "HgN/A
6:20 pm77 °FPassing clouds.18 mph51%30.12 "HgN/A
5:20 pm81 °FPassing clouds.17 mph48%30.12 "HgN/A
4:30 pm82 °FPassing clouds.16 mph42%30.12 "HgN/A
3:20 pm82 °FPassing clouds.16 mph45%30.12 "HgN/A
2:20 pm84 °FPleasantly warm.15 mph37%30.15 "HgN/A
Weather by CustomWeather, © 2020

See weather overview